小惑星2000 EJ37

(301964) 2000 EJ37 (2001)

English version
Home page
Updated on January 23, 2012

---------------------------------------------------------------------

・ プロフィール

符号 (301964) 2000 EJ37
発見日 2000年3月8日
発見光度
発見者 Lincoln Laboratory Near-Earth Asteroid Research project

・ 軌道要素

Epoch 2001 Oct. 18.0 TT = JDT 2452200.5                 Spahr
M  27.36728              (2000.0)            P               Q
n   0.09709337     Peri.  110.46648     +0.42235898     +0.90631796
a   4.6882381      Node   184.59196     -0.88354398     +0.40815607
e   0.7043574      Incl.   10.19099     -0.20239299     +0.10952795
P  10.15           H   13.6           G   0.15           U   3

・ 星図

・ 光度変化

        H = 13.6  G = 0.15

---------------------------------------------------------------------

軌道要素は Dr. Timothy B. Spahr の計算によるもので、 M.P.E.C. 2001-P45 に掲載されたものです。
星図は StellaNavigator Ver.2.0 for Windows (アストロアーツ 編著 / アスキー出版局刊) で作成したものです。
光度グラフはComet for Windowsで作成したものです。

---------------------------------------------------------------------

Copyright(C) Seiichi Yoshida (comet@aerith.net). All rights reserved.